Weather History for KTCL - September, 2013

Change the Weather History Date:

Wednesday, September 18, 2013

  Actual Average Record
Temperature  
Mean Temperature 80 °F 75 °F  
Max Temperature 88 °F 87 °F 99 °F (2010)
Min Temperature 72 °F 63 °F 46 °F (1981)
Degree Days  
Heating Degree Days 0 0  
Month to date heating degree days 0 0  
Since 1 July heating degree days 0 0  
Cooling Degree Days 14    
Growing Degree Days 30 (Base 50)    
Moisture  
Dew Point 66 °F    
Average Humidity 65    
Maximum Humidity 79    
Minimum Humidity 50    
Precipitation  
Precipitation 0.00 in 0.11 in 2.04 in (2009)
Month to date precipitation 0.08 2.13  
Year to date precipitation 38.90 38.00  
Sea Level Pressure  
Sea Level Pressure 30.11 in    
Wind  
Wind Speed 7 mph (ESE)    
Max Wind Speed 13 mph    
Max Gust Speed 18 mph    
Visibility 10 miles    
Events      
T = Trace of Precipitation, MM = Missing Value Source: NWS Daily Summary

Daily Weather History Graph

Daily Weather History Graph

Search for Another Location

Airport or City:

Trip Planner

Search our weather history database for the weather conditions in past years. The results will help you decide how hot, cold, wet, or windy it might be!

Date:

Astronomy

Sep. 18, 2013 Rise Set
Actual Time 6:36 AM CDT 6:52 PM CDT
Civil Twilight 6:11 AM CDT 7:17 PM CDT
Nautical Twilight 5:42 AM CDT 7:45 PM CDT
Astronomical Twilight 5:12 AM CDT 8:15 PM CDT
Moon 6:16 PM CDT (9/18) 5:39 AM CDT (9/18)
Length of Visible Light 13h 05m
Length of Day
12h 16m
Waxing Gibbous, 99% of the Moon is Illuminated
Sep 18
Waxing Gibbous
Sep 19
Full
Sep 26
Last Quarter
Oct 4
New
Oct 11
First Quarter

Hourly Weather History & Observations

Time (CDT) Temp. Heat Index Dew Point Humidity Pressure Visibility Wind Dir Wind Speed Gust Speed Precip Events Conditions
12:53 AM 75.9 °F - 68.0 °F 76% 30.11 in 9.0 mi Variable 6.9 mph - N/A   Clear
1:53 AM 75.0 °F - 66.9 °F 76% 30.11 in 9.0 mi ESE 6.9 mph - N/A   Clear
2:53 AM 73.9 °F - 66.0 °F 76% 30.11 in 9.0 mi ESE 8.1 mph - N/A   Clear
3:53 AM 73.0 °F - 66.0 °F 79% 30.11 in 9.0 mi ESE 9.2 mph - N/A   Mostly Cloudy
4:19 AM 73.4 °F - 64.4 °F 73% 30.11 in 10.0 mi ESE 8.1 mph - N/A   Overcast
4:53 AM 73.0 °F - 64.9 °F 76% 30.11 in 9.0 mi East 6.9 mph - N/A   Mostly Cloudy
5:00 AM 71.6 °F - 64.4 °F 78% 30.12 in 9.0 mi ESE 6.9 mph - N/A   Mostly Cloudy
5:53 AM 72.0 °F - 64.9 °F 78% 30.13 in 10.0 mi East 6.9 mph - N/A   Overcast
6:53 AM 72.0 °F - 64.9 °F 78% 30.14 in 9.0 mi East 6.9 mph - N/A   Overcast
7:11 AM 71.6 °F - 64.4 °F 78% 30.14 in 9.0 mi East 8.1 mph - N/A   Scattered Clouds
7:53 AM 73.0 °F - 64.9 °F 76% 30.15 in 9.0 mi East 9.2 mph - N/A   Partly Cloudy
8:53 AM 75.0 °F - 64.9 °F 71% 30.16 in 10.0 mi SE 6.9 mph - N/A   Clear
9:53 AM 78.1 °F - 64.9 °F 64% 30.17 in 10.0 mi SE 12.7 mph - N/A   Clear
10:53 AM 81.0 °F 83.0 °F 66.0 °F 60% 30.16 in 10.0 mi SSE 9.2 mph - N/A   Partly Cloudy
11:53 AM 82.9 °F 85.4 °F 66.9 °F 58% 30.15 in 10.0 mi Variable 3.5 mph - N/A   Partly Cloudy
12:53 PM 84.9 °F 87.6 °F 66.9 °F 55% 30.13 in 10.0 mi SSW 6.9 mph - N/A   Scattered Clouds
1:53 PM 88.0 °F 90.7 °F 66.9 °F 49% 30.10 in 10.0 mi Variable 6.9 mph - N/A   Mostly Cloudy
2:53 PM 88.0 °F 91.4 °F 68.0 °F 51% 30.08 in 10.0 mi Variable 4.6 mph - N/A   Mostly Cloudy
3:53 PM 88.0 °F 91.4 °F 68.0 °F 51% 30.06 in 10.0 mi ESE 8.1 mph - N/A   Partly Cloudy
4:53 PM 87.1 °F 89.9 °F 66.9 °F 51% 30.06 in 10.0 mi SE 5.8 mph - N/A   Clear
5:53 PM 86.0 °F 88.8 °F 66.9 °F 53% 30.05 in 10.0 mi SSE 10.4 mph - N/A   Clear
6:53 PM 84.0 °F 86.5 °F 66.9 °F 56% 30.06 in 10.0 mi SE 6.9 mph - N/A   Scattered Clouds
7:53 PM 82.0 °F 84.5 °F 66.9 °F 60% 30.07 in 10.0 mi ESE 3.5 mph - N/A   Mostly Cloudy
8:53 PM 80.1 °F 82.3 °F 66.9 °F 64% 30.09 in 10.0 mi ESE 4.6 mph - N/A   Clear
9:53 PM 79.0 °F - 66.9 °F 66% 30.09 in 10.0 mi ESE 4.6 mph - N/A   Clear
10:53 PM 78.1 °F - 66.9 °F 68% 30.10 in 10.0 mi East 4.6 mph - N/A   Clear
11:53 PM 77.0 °F - 66.0 °F 69% 30.09 in 10.0 mi East 5.8 mph - N/A   Clear